Benton Harbor, MI

1:46 AM EDT on March 27, 2017 (GMT -0400)
Southwest Michigan Regional

Weather History for KBEH - May, 2012

Change the Weather History Date:

Wednesday, May 9, 2012

  Actual Average Record
Temperature  
Mean Temperature 50 °F -  
Max Temperature 54 °F 66 °F 89 °F (1993)
Min Temperature 44 °F 46 °F 25 °F (1955)
Degree Days  
Heating Degree Days 16    
Moisture  
Dew Point 44 °F    
Average Humidity 82    
Maximum Humidity 100    
Minimum Humidity 61    
Precipitation  
Precipitation 0.00 in - - ()
Sea Level Pressure  
Sea Level Pressure 29.89 in    
Wind  
Wind Speed 5 mph (NW)    
Max Wind Speed 13 mph    
Max Gust Speed 21 mph    
Visibility 8 miles    
Events Rain    
Averages and records for this station are not official NWS values.
T = Trace of Precipitation, MM = Missing Value Source: NWS Daily Summary

Daily Weather History Graph

Daily Weather History Graph

Search for Another Location

Airport or City:

Trip Planner

Search our weather history database for the weather conditions in past years. The results will help you decide how hot, cold, wet, or windy it might be!

Date:

Astronomy

May. 09, 2012 Rise Set
Actual Time 6:30 AM EDT 8:54 PM EDT
Civil Twilight 5:59 AM EDT 9:25 PM EDT
Nautical Twilight 5:20 AM EDT 10:04 PM EDT
Astronomical Twilight 4:37 AM EDT 10:48 PM EDT
Moon 12:04 AM EDT (5/9) 9:44 AM EDT (5/9)
Length of Visible Light 15h 26m
Length of Day
14h 23m
Waning Gibbous, 83% of the Moon is Illuminated
May 9
Waning Gibbous
May 12
Last Quarter
May 20
New
May 28
First Quarter
Jun 4
Full

Hourly Weather History & Observations

Time (EDT) Temp. Windchill Dew Point Humidity Pressure Visibility Wind Dir Wind Speed Gust Speed Precip Events Conditions
12:53 AM 54.0 °F - 45.0 °F 72% 29.85 in 10.0 mi WNW 6.9 mph - N/A   Mostly Cloudy
1:53 AM 53.1 °F - 46.9 °F 80% 29.85 in 10.0 mi Calm Calm - N/A   Overcast
2:53 AM 52.0 °F - 46.9 °F 83% 29.84 in 10.0 mi West 5.8 mph - N/A   Overcast
3:53 AM 51.1 °F - 46.0 °F 83% 29.84 in 10.0 mi WNW 5.8 mph - N/A   Mostly Cloudy
4:53 AM 48.9 °F - 45.0 °F 86% 29.84 in 10.0 mi West 3.5 mph - N/A   Clear
5:53 AM 51.1 °F - 46.0 °F 83% 29.84 in 10.0 mi WNW 6.9 mph - N/A   Clear
6:53 AM 48.0 °F - 46.0 °F 93% 29.85 in 8.0 mi NW 4.6 mph - N/A   Clear
7:01 AM 48.2 °F - 46.4 °F 93% 29.85 in 6.0 mi Calm Calm - N/A   Partly Cloudy
7:37 AM 48.2 °F - 46.4 °F 93% 29.86 in 6.0 mi NW 3.5 mph - N/A   Mostly Cloudy
7:53 AM 48.9 °F - 46.9 °F 93% 29.87 in 5.0 mi WNW 5.8 mph - N/A   Overcast
8:07 AM 46.4 °F 45.2 °F 46.4 °F 100% 29.87 in 2.5 mi Variable 3.5 mph - N/A   Overcast
8:11 AM 46.4 °F 45.2 °F 46.4 °F 100% 29.87 in 1.2 mi NW 3.5 mph - N/A   Overcast
8:19 AM 46.4 °F - 46.4 °F 100% 29.87 in 1.0 mi Calm Calm - N/A   Overcast
8:22 AM 46.4 °F 45.2 °F 46.4 °F 100% 29.87 in 2.0 mi WNW 3.5 mph - N/A   Overcast
8:33 AM 46.4 °F 43.5 °F 46.4 °F 100% 29.87 in 3.0 mi WNW 5.8 mph - N/A   Overcast
8:53 AM 48.9 °F - 46.0 °F 90% 29.88 in 10.0 mi Variable 3.5 mph - N/A   Overcast
9:16 AM 48.2 °F - 44.6 °F 87% 29.88 in 10.0 mi Variable 4.6 mph - N/A   Overcast
9:53 AM 50.0 °F - 46.0 °F 86% 29.89 in 10.0 mi NW 8.1 mph - N/A   Overcast
10:24 AM 50.0 °F - 44.6 °F 82% 29.89 in 10.0 mi Variable 6.9 mph - N/A   Overcast
10:37 AM 51.8 °F - 44.6 °F 76% 29.89 in 10.0 mi Variable 4.6 mph - N/A   Mostly Cloudy
10:53 AM 51.1 °F - 43.0 °F 74% 29.90 in 10.0 mi Variable 4.6 mph - N/A   Mostly Cloudy
11:53 AM 50.0 °F - 44.1 °F 80% 29.92 in 10.0 mi NW 11.5 mph 16.1 mph N/A   Overcast
12:42 PM 51.8 °F - 44.6 °F 76% 29.92 in 10.0 mi NW 10.4 mph 17.3 mph N/A   Overcast
12:53 PM 52.0 °F - 45.0 °F 77% 29.92 in 10.0 mi Variable 6.9 mph 20.7 mph N/A   Overcast
1:53 PM 48.9 °F - 44.1 °F 83% 29.93 in 10.0 mi NW 9.2 mph 18.4 mph N/A   Overcast
2:22 PM 48.2 °F - 42.8 °F 82% 29.92 in 9.0 mi North 10.4 mph - 0.00 in Rain Light Rain
2:53 PM 51.1 °F - 44.1 °F 77% 29.92 in 10.0 mi NNW 8.1 mph 19.6 mph 0.00 in   Mostly Cloudy
3:53 PM 50.0 °F - 42.1 °F 74% 29.93 in 10.0 mi NW 12.7 mph 19.6 mph N/A   Partly Cloudy
4:53 PM 51.1 °F - 42.1 °F 71% 29.93 in 10.0 mi Variable 6.9 mph - N/A   Clear
5:53 PM 51.1 °F - 39.9 °F 66% 29.92 in 10.0 mi Variable 5.8 mph 19.6 mph N/A   Clear
6:53 PM 51.1 °F - 37.9 °F 61% 29.92 in 10.0 mi Variable 5.8 mph - N/A   Clear
7:53 PM 51.1 °F - 37.9 °F 61% 29.92 in 10.0 mi Variable 4.6 mph - N/A   Clear
8:53 PM 48.9 °F - 37.9 °F 66% 29.92 in 10.0 mi Variable 4.6 mph - N/A   Clear
9:53 PM 46.9 °F - 37.9 °F 71% 29.94 in 10.0 mi NW 3.5 mph - N/A   Clear
10:53 PM 45.0 °F - 39.0 °F 80% 29.95 in 10.0 mi Calm Calm - N/A   Clear
11:53 PM 44.1 °F - 39.9 °F 85% 29.94 in 10.0 mi Calm Calm - N/A   Clear